| time (UTC) | temp F | wind direction | speed MPH | gust MPH | rain 1hr in | rain 24hr in | rain mn in | humidity % | barometer mb |
| 20260502163028 | 47 | 100 | 5.0 | 10.0 | 0.00 | 0.18 | 0.05 | 55 | 1013.3 |
| 20260502161528 | 46 | 51 | 8.0 | 13.0 | 0.00 | 0.18 | 0.05 | 57 | 1013.4 |
| 20260502151533 | 45 | 68 | 5.0 | 11.0 | 0.00 | 0.18 | 0.05 | 60 | 1013.5 |
| 20260502123034 | 38 | 47 | 5.0 | 10.0 | 0.00 | 0.18 | 0.05 | 82 | 1014.1 |
| 20260502121541 | 38 | 39 | 5.0 | 10.0 | 0.00 | 0.18 | 0.05 | 85 | 1014.3 |
| 20260502114531 | 37 | 58 | 2.0 | 5.0 | 0.00 | 0.18 | 0.05 | 88 | 1013.9 |
| 20260502113027 | 36 | 5 | 2.0 | 6.0 | 0.00 | 0.18 | 0.05 | 90 | 1013.9 |
| 20260502111528 | 35 | 0 | 2.0 | 4.0 | 0.00 | 0.18 | 0.05 | 93 | 1014.0 |
| 20260502110030 | 34 | 42 | 2.0 | 6.0 | 0.00 | 0.18 | 0.05 | 94 | 1013.8 |
| 20260502104528 | 34 | 47 | 3.0 | 5.0 | 0.00 | 0.18 | 0.05 | 94 | 1013.8 |
| 20260502103032 | 34 | 49 | 3.0 | 7.0 | 0.00 | 0.18 | 0.05 | 94 | 1013.9 |
| 20260502101540 | 33 | 65 | 0.0 | 2.0 | 0.00 | 0.18 | 0.05 | 93 | 1013.7 |
| 20260502091528 | 36 | 0 | 0.0 | 1.0 | 0.00 | 0.18 | 0.05 | 93 | 1013.4 |
| 20260502071530 | 38 | 0 | 0.0 | 1.0 | 0.01 | 0.18 | 0.05 | 90 | 1012.6 |
| 20260502070028 | 39 | 22 | 0.0 | 4.0 | 0.01 | 0.18 | 0.05 | 89 | 1012.5 |
| 20260502064527 | 38 | 36 | 1.0 | 4.0 | 0.01 | 0.18 | 0.05 | 89 | 1012.5 |
| 20260502063029 | 39 | 11 | 1.0 | 5.0 | 0.02 | 0.18 | 0.05 | 90 | 1012.6 |
| 20260502061526 | 39 | 348 | 0.0 | 5.0 | 0.01 | 0.17 | 0.04 | 88 | 1012.7 |
| 20260502060030 | 40 | 92 | 6.0 | 14.0 | 0.02 | 0.17 | 0.04 | 88 | 1012.8 |
| 20260502054530 | 42 | 106 | 2.0 | 10.0 | 0.02 | 0.16 | 0.03 | 90 | 1012.4 |
| 20260502053029 | 42 | 155 | 6.0 | 15.0 | 0.03 | 0.16 | 0.03 | 93 | 1012.1 |
| 20260502051530 | 43 | 57 | 3.0 | 5.0 | 0.02 | 0.15 | 0.02 | 94 | 1012.1 |
| 20260502050036 | 43 | 52 | 0.0 | 5.0 | 0.02 | 0.15 | 0.02 | 94 | 1012.1 |
| 20260502044527 | 43 | 15 | 2.0 | 8.0 | 0.01 | 0.14 | 0.01 | 94 | 1012.1 |
| 20260502043028 | 43 | 45 | 4.0 | 9.0 | 0.00 | 0.13 | 0.00 | 94 | 1012.0 |
| 20260502041545 | 44 | 113 | 2.0 | 7.0 | 0.00 | 0.13 | 0.00 | 95 | 1011.7 |
| 20260502040030 | 44 | 0 | 0.0 | 3.0 | 0.00 | 0.13 | 0.00 | 95 | 1011.5 |
| 20260502034528 | 44 | 0 | 0.0 | 3.0 | 0.00 | 0.13 | 0.13 | 95 | 1011.1 |
| 20260502033028 | 44 | 0 | 0.0 | 2.0 | 0.00 | 0.13 | 0.13 | 95 | 1011.5 |
| 20260502031530 | 44 | 0 | 0.0 | 2.0 | 0.00 | 0.13 | 0.13 | 95 | 1011.6 |
| 20260502030028 | 44 | 0 | 0.0 | 4.0 | 0.00 | 0.13 | 0.13 | 95 | 1011.4 |
| 20260502024527 | 44 | 0 | 0.0 | 0.0 | 0.01 | 0.13 | 0.13 | 95 | 1011.5 |
| 20260502023028 | 44 | 0 | 0.0 | 2.0 | 0.01 | 0.13 | 0.13 | 95 | 1011.3 |
| 20260502021530 | 44 | 0 | 0.0 | 0.0 | 0.02 | 0.13 | 0.13 | 95 | 1011.4 |
| 20260502020028 | 44 | 0 | 0.0 | 1.0 | 0.03 | 0.13 | 0.13 | 94 | 1011.3 |
| 20260502014530 | 45 | 0 | 0.0 | 0.0 | 0.02 | 0.12 | 0.12 | 94 | 1011.4 |
| 20260502013028 | 45 | 0 | 0.0 | 0.0 | 0.03 | 0.12 | 0.12 | 94 | 1011.6 |
| 20260502011528 | 45 | 0 | 0.0 | 0.0 | 0.03 | 0.11 | 0.11 | 94 | 1011.2 |
| 20260502010027 | 45 | 0 | 0.0 | 0.0 | 0.02 | 0.10 | 0.10 | 93 | 1011.4 |
| 20260502004530 | 46 | 0 | 0.0 | 2.0 | 0.03 | 0.10 | 0.10 | 93 | 1011.3 |
| 20260502003034 | 46 | 0 | 0.0 | 1.0 | 0.02 | 0.09 | 0.09 | 92 | 1011.1 |
| 20260502001529 | 46 | 283 | 0.0 | 1.0 | 0.01 | 0.08 | 0.08 | 91 | 1010.9 |
| 20260502000030 | 46 | 0 | 0.0 | 2.0 | 0.01 | 0.08 | 0.08 | 90 | 1010.7 |
| 20260501234530 | 46 | 0 | 0.0 | 2.0 | 0.00 | 0.07 | 0.07 | 89 | 1010.7 |
| 20260501233028 | 47 | 283 | 0.0 | 2.0 | 0.00 | 0.07 | 0.07 | 87 | 1010.6 |
| 20260501231541 | 47 | 0 | 0.0 | 0.0 | 0.00 | 0.07 | 0.07 | 86 | 1010.7 |
| 20260501230028 | 47 | 0 | 0.0 | 0.0 | 0.00 | 0.07 | 0.07 | 86 | 1010.6 |
| 20260501224528 | 47 | 0 | 0.0 | 2.0 | 0.00 | 0.08 | 0.07 | 86 | 1010.3 |
| 20260501223046 | 47 | 0 | 0.0 | 2.0 | 0.00 | 0.08 | 0.07 | 84 | 1010.1 |
| 20260501221530 | 48 | 225 | 1.0 | 4.0 | 0.01 | 0.08 | 0.07 | 84 | 1010.2 |
| 20260501220028 | 47 | 0 | 0.0 | 2.0 | 0.01 | 0.08 | 0.07 | 86 | 1010.3 |
| 20260501214528 | 47 | 0 | 0.0 | 1.0 | 0.02 | 0.08 | 0.07 | 83 | 1010.6 |
| 20260501213030 | 47 | 0 | 0.0 | 2.0 | 0.03 | 0.08 | 0.07 | 87 | 1010.7 |
| 20260501211530 | 47 | 0 | 0.0 | 3.0 | 0.04 | 0.07 | 0.06 | 88 | 1010.7 |
| 20260501210029 | 47 | 81 | 0.0 | 3.0 | 0.06 | 0.07 | 0.06 | 88 | 1010.7 |
| 20260501204528 | 47 | 179 | 0.0 | 2.0 | 0.05 | 0.07 | 0.05 | 90 | 1010.5 |
| 20260501203026 | 46 | 0 | 0.0 | 3.0 | 0.03 | 0.05 | 0.03 | 87 | 1010.8 |
| 20260501201530 | 47 | 94 | 2.0 | 8.0 | 0.02 | 0.04 | 0.02 | 83 | 1010.4 |
| 20260501200028 | 50 | 105 | 2.0 | 10.0 | 0.00 | 0.02 | 0.00 | 77 | 1010.2 |
| 20260501194528 | 51 | 53 | 4.0 | 15.0 | 0.00 | 0.04 | 0.00 | 69 | 1010.2 |
| 20260501193029 | 53 | 355 | 5.0 | 17.0 | 0.00 | 0.04 | 0.00 | 61 | 1010.1 |
| 20260501191527 | 54 | 346 | 7.0 | 16.0 | 0.00 | 0.04 | 0.00 | 52 | 1009.5 |
| 20260501190030 | 55 | 11 | 5.0 | 12.0 | 0.00 | 0.04 | 0.00 | 50 | 1009.5 |
| 20260501184528 | 56 | 325 | 1.0 | 8.0 | 0.00 | 0.04 | 0.00 | 51 | 1009.6 |
| 20260501183030 | 55 | 61 | 7.0 | 16.0 | 0.00 | 0.04 | 0.00 | 51 | 1009.8 |
| 20260501181534 | 55 | 36 | 4.0 | 12.0 | 0.00 | 0.04 | 0.00 | 50 | 1009.8 |
| 20260501180030 | 55 | 80 | 6.0 | 11.0 | 0.00 | 0.04 | 0.00 | 50 | 1009.9 |
| 20260501174537 | 54 | 77 | 2.0 | 18.0 | 0.00 | 0.04 | 0.00 | 52 | 1010.2 |
| 20260501173033 | 55 | 360 | 6.0 | 13.0 | 0.00 | 0.04 | 0.00 | 53 | 1010.5 |
| 20260501171534 | 55 | 21 | 5.0 | 9.0 | 0.00 | 0.04 | 0.00 | 53 | 1010.7 |
| 20260501170028 | 54 | 26 | 1.0 | 15.0 | 0.00 | 0.04 | 0.00 | 53 | 1010.6 |
| 20260501164531 | 54 | 67 | 7.0 | 12.0 | 0.00 | 0.04 | 0.00 | 53 | 1011.0 |